Location: General Nathan Twining Observatory
(34.5931°N, 106.8201°W)
Time: 16:21:45
(UTC-06:00)

ADEOS II - Visible Passes

Search period start: 25 September 2017 00:00
Search period end: 05 October 2017 00:00
Orbit: 799 x 802 km, 98.4° (Epoch: 25 September)

Date Brightness Start Highest point End Pass type
(mag) Time Alt. Az. Time Alt. Az. Time Alt. Az.
25 Sep 4.6 03:29:15 10° NE 03:31:51 16° E 03:31:51 16° E visible
25 Sep 2.2 05:07:15 10° N 05:12:20 52° WNW 05:12:47 50° W visible
26 Sep 2.0 04:40:42 10° NNE 04:45:56 86° ENE 04:45:56 86° ENE visible
27 Sep 3.0 04:14:29 10° NNE 04:19:05 46° E 04:19:05 46° E visible
27 Sep 3.4 05:55:19 10° NNW 05:58:51 19° WNW 06:00:01 17° W visible
28 Sep 4.0 03:48:40 10° NE 03:52:14 25° E 03:52:14 25° E visible
28 Sep 2.7 05:28:03 10° N 05:32:41 32° WNW 05:33:10 32° W visible
29 Sep 4.8 03:23:46 10° ENE 03:25:22 13° E 03:25:22 13° E visible
29 Sep 2.1 05:01:15 10° N 05:06:18 59° WNW 05:06:18 59° WNW visible
30 Sep 2.3 04:34:46 10° NNE 04:39:27 68° NE 04:39:27 68° NE visible
30 Sep 3.9 06:17:21 10° NW 06:19:03 12° WNW 06:20:23 11° WNW visible
01 Oct 3.4 04:08:37 10° NNE 04:12:35 37° ENE 04:12:35 37° ENE visible
01 Oct 3.3 05:49:08 10° NNW 05:52:58 21° WNW 05:53:32 21° WNW visible
02 Oct 4.3 03:42:56 10° NE 03:45:44 21° ENE 03:45:44 21° ENE visible
02 Oct 2.6 05:21:59 10° N 05:26:40 36° WNW 05:26:40 36° WNW visible
03 Oct 5.0 03:18:28 10° ENE 03:18:52 11° ENE 03:18:52 11° ENE visible
03 Oct 2.2 04:55:16 10° N 04:59:48 60° NNW 04:59:48 60° NNW visible
04 Oct 2.7 04:28:51 10° NNE 04:32:56 51° NE 04:32:56 51° NE visible
04 Oct 3.8 06:10:48 10° NW 06:13:11 13° WNW 06:13:52 13° WNW visible
